EW5383 Weather Reports


Display with metric or nautical units.
time (UTC)temp
F
wind
direction
speed
MPH
gust
MPH
rain 1hr
in
rain 24hr
in
rain mn
in
humidity
%
barometer
mb
20260902184526 94 120 0.0 2.0 0.00 0.03 0.00 59 1014.3
20260902183024 92 124 0.0 2.0 0.00 0.03 0.00 59 1014.4
20260902181517 91 190 0.0 1.0 0.00 0.03 0.00 59 1014.7
20260902180015 91 123 0.0 2.0 0.00 0.03 0.00 59 1014.8
20260902174508 91 72 0.0 2.0 0.00 0.03 0.00 58 1014.9
20260902173012 90 94 0.0 0.0 0.00 0.03 0.00 49 1015.1
20260902171606 89 164 0.0 0.0 0.00 0.03 0.00 16 1015.3
20260902170055 88 31 0.0 3.0 0.00 0.03 0.00 35 1015.6
20260902164550 87 56 0.0 2.0 0.00 0.03 0.00 4 1015.8
20260902163046 86 75 0.0 0.0 0.00 0.03 0.00 1 1015.9
20260902161551 85 98 0.0 1.0 0.00 0.03 0.00 1 1016.1
20260902160038 86 131 0.0 3.0 0.00 0.03 0.00 4 1016.3
20260902154534 88 33 0.0 2.0 0.00 0.03 0.00 37 1016.1
20260902153028 89 50 0.0 1.0 0.00 0.03 0.00 46 1016.1
20260902151524 88 120 0.0 0.0 0.00 0.03 0.00 1 1016.3
20260902150023 87 51 0.0 1.0 0.00 0.03 0.00 18 1016.4
20260902144515 88 45 0.0 1.0 0.00 0.03 0.00 1 1016.3
20260902143010 88 82 0.0 1.0 0.00 0.03 0.00 1 1016.3
20260902141510 88 43 0.0 1.0 0.00 0.03 0.00 1 1016.1
20260902140004 87 52 0.0 1.0 0.00 0.03 0.00 1 1016.2
20260902134600 85 86 0.0 1.0 0.00 0.03 0.00 1 1016.3
20260902133057 84 107 0.0 1.0 0.00 0.03 0.00 1 1016.3
20260902131551 83 121 0.0 1.0 0.00 0.03 0.00 1 1016.2
20260902130045 82 41 0.0 1.0 0.00 0.03 0.00 1 1016.1
20260902124540 81 85 0.0 1.0 0.00 0.03 0.00 1 1016.3
20260902123036 80 105 0.0 0.0 0.00 0.03 0.00 1 1016.0
20260902121531 79 70 0.0 0.0 0.00 0.03 0.00 1 1015.9
20260902120028 78 69 0.0 0.0 0.00 0.03 0.00 1 1015.9
20260902114543 77 69 0.0 0.0 0.00 0.03 0.00 1 1015.9
20260902113018 0 0.0 0.0 0.00 0.03 0.00 1015.8
20260902111513 0 0.0 0.0 0.00 0.03 0.00 1015.7
20260902110015 0 0.0 0.0 0.00 0.03 0.00 1015.7
20260902104508 0 0.0 0.0 0.00 0.03 0.00 1015.5
20260902103002 0 0.0 0.0 0.00 0.03 0.00 1015.3
20260902101557 0 0.0 0.0 0.00 0.03 0.00 1015.4
20260902100053 0 0.0 0.0 0.00 0.03 0.00 1015.2
20260902094550 0 0.0 0.0 0.00 0.03 0.00 1015.1
20260902093044 0 0.0 0.0 0.00 0.03 0.00 1014.9
20260902091548 0 0.0 0.0 0.00 0.03 0.00 1014.9
20260902090046 0 0.0 0.0 0.00 0.03 0.00 1014.8
20260902084531 0 0.0 0.0 0.00 0.03 0.00 1014.6
20260902083029 0 0.0 0.0 0.00 0.03 0.00 1014.6
20260902081523 0 0.0 0.0 0.00 0.03 0.00 1014.8
20260902080018 0 0.0 0.0 0.00 0.03 0.00 1014.6
20260902074513 0 0.0 0.0 0.00 0.03 0.00 1014.7
20260902073009 0 0.0 0.0 0.00 0.03 0.00 1014.5
20260902071508 0 0.0 0.0 0.00 0.03 0.00 1014.7
20260902064556 0 0.0 0.0 0.00 0.03 0.00 1014.8
20260902063056 0 0.0 0.0 0.00 0.03 0.00 1014.9
20260902061551 0 0.0 0.0 0.00 0.03 0.00 1015.1
20260902060053 0 0.0 0.0 0.00 0.03 0.00 1015.1
20260902054542 0 0.0 0.0 0.00 0.03 0.00 1015.3
20260902053038 0 0.0 0.0 0.00 0.03 0.00 1015.5
20260902051530 0 0.0 0.0 0.00 0.03 0.00 1015.5
20260902050026 0 0.0 0.0 0.00 0.03 0.00 1015.5
20260902044522 0 0.0 0.0 0.00 0.03 0.00 1015.6
20260902043017 0 0.0 0.0 0.00 0.03 0.00 1015.7
20260902041514 0 0.0 0.0 0.00 0.03 0.00 1015.8
20260902040009 0 0.0 0.0 0.00 0.03 0.00 1015.8
20260902034515 0 0.0 0.0 0.00 0.03 0.03 1015.9
20260902033106 0 0.0 0.0 0.00 0.03 0.03 1016.2
20260902031555 0 0.0 0.0 0.00 0.03 0.03 1016.3
20260902030051 0 0.0 0.0 0.00 0.03 0.03 1016.4
20260902024547 0 0.0 0.0 0.00 0.03 0.03 1016.3
20260902023047 0 0.0 0.0 0.00 0.03 0.03 1016.3
20260902021538 78 69 0.0 0.0 0.00 0.03 0.03 1 1016.3
20260902020032 78 69 0.0 0.0 0.00 0.03 0.03 1 1016.2
20260902014535 78 69 0.0 0.0 0.00 0.03 0.03 1 1016.1
20260902013024 78 69 0.0 0.0 0.00 0.03 0.03 1 1016.0
20260902011520 78 69 0.0 0.0 0.00 0.03 0.03 1 1016.0
20260902010028 78 69 0.0 0.0 0.00 0.03 0.03 1 1016.0
20260902004511 79 69 0.0 0.0 0.00 0.03 0.03 1 1015.8
20260902003007 79 69 0.0 0.0 0.00 0.03 0.03 1 1015.8
20260902001503 79 69 0.0 0.0 0.00 0.03 0.03 1 1015.9
20260902000100 80 69 0.0 0.0 0.01 0.03 0.03 1 1015.8
20260901234609 80 69 0.0 0.0 0.01 0.03 0.03 1 1015.7
20260901233149 81 117 0.0 0.0 0.01 0.03 0.03 1 1015.9
20260901231550 81 120 0.0 0.0 0.02 0.03 0.03 1 1015.7
20260901230043 82 110 0.0 1.0 0.02 0.02 0.02 1 1015.5
20260901224537 82 103 0.0 0.0 0.02 0.02 0.02 1 1015.1
20260901223034 83 117 0.0 0.0 0.02 0.02 0.02 1 1014.8
20260901221530 83 117 0.0 0.0 0.01 0.01 0.01 1 1015.0
20260901220030 83 180 0.0 0.0 0.00 0.00 0.00 1 1014.9
20260901214519 83 180 0.0 0.0 0.00 0.00 0.00 2 1015.0
20260901213017 82 62 0.0 0.0 0.00 0.00 0.00 8 1015.1
20260901211513 82 56 0.0 0.0 0.00 0.00 0.00 5 1014.9
20260901210006 82 45 0.0 0.0 0.00 0.00 0.00 1 1014.5
20260901204508 83 23 0.0 4.0 0.00 0.00 0.00 16 1014.6
20260901203058 86 63 1.0 5.0 0.00 0.00 0.00 52 1014.8
20260901201557 90 116 0.0 3.0 0.00 0.00 0.00 57 1014.2
20260901200051 90 67 1.0 4.0 0.00 0.00 0.00 61 1014.4
20260901194553 92 23 0.0 2.0 0.00 0.00 0.00 59 1014.1
20260901193040 93 65 0.0 1.0 0.00 0.00 0.00 59 1014.3
20260901191535 93 162 0.0 1.0 0.00 0.00 0.00 57 1014.7
20260901190030 93 178 0.0 2.0 0.00 0.00 0.00 58 1015.0